Climatologie pour Saint-Brevin les Pins
Jour • Résumé pour mai 22, 2017 Système :  Métrique    Anglais   Mixte
« - 1 jour
+ 1 jour »
Jour Semaine Mois Année Personnalisé
  Maximum : Minimum : Moyenne :
Température sous abri : 23.7 °C 11.8 °C 16.8 °C
Point de rosée : 17.1 °C 9.8 °C 13.2 °C
Humidité : 96 % 55 % 80 %
Vitesse du vent : 19.3 km/h 0.0 km/h 5 km/h
Rafale : 27.4 km/h - -
Direction :- - SSW
Pression : 1018.8 hPa 1012.4 hPa -
Précipitations : 0.0 mm    
Historical Graphs
 
 
Tableau de données pour mai 22, 2017
Heure Tempé Pt rosée Pression Vent Vitesse Rafale Humidité Taux pluie (/hr) Soleil
00:00 15.1 °C 11.5 °C 1015.5 hPa East 3.2 km/h 9.7 km/h 79 % 0.0 mm 0 W/m2
00:10 14.8 °C 11.4 °C 1015.5 hPa East 3.2 km/h 8.0 km/h 80 % 0.0 mm 0 W/m2
00:15 14.8 °C 11.4 °C 1015.5 hPa East 1.6 km/h 8.0 km/h 80 % 0.0 mm 0 W/m2
00:20 14.7 °C 11.3 °C 1015.1 hPa East 4.8 km/h 8.0 km/h 80 % 0.0 mm 0 W/m2
00:25 14.5 °C 11.3 °C 1015.1 hPa East 8.0 km/h 9.7 km/h 81 % 0.0 mm 0 W/m2
00:30 14.4 °C 11.2 °C 1015.1 hPa East 4.8 km/h 9.7 km/h 81 % 0.0 mm 0 W/m2
00:35 14.2 °C 11.2 °C 1015.1 hPa ENE 1.6 km/h 8.0 km/h 82 % 0.0 mm 0 W/m2
00:40 13.8 °C 11.0 °C 1015.1 hPa Calm   6.4 km/h 83 % 0.0 mm 0 W/m2
00:45 13.8 °C 11.2 °C 1015.1 hPa East 1.6 km/h 6.4 km/h 84 % 0.0 mm 0 W/m2
00:50 13.9 °C 11.0 °C 1015.1 hPa East 1.6 km/h 8.0 km/h 83 % 0.0 mm 0 W/m2
00:55 13.7 °C 11.1 °C 1015.1 hPa East 1.6 km/h 8.0 km/h 84 % 0.0 mm 0 W/m2
01:00 13.8 °C 10.9 °C 1015.1 hPa Calm   4.8 km/h 83 % 0.0 mm 0 W/m2
01:10 13.5 °C 10.8 °C 1015.1 hPa Calm   4.8 km/h 84 % 0.0 mm 0 W/m2
01:15 13.4 °C 11.0 °C 1015.1 hPa ENE 3.2 km/h 4.8 km/h 85 % 0.0 mm 0 W/m2
01:20 13.6 °C 11.0 °C 1015.1 hPa Calm   4.8 km/h 84 % 0.0 mm 0 W/m2
01:25 13.4 °C 10.8 °C 1015.1 hPa ENE 3.2 km/h 4.8 km/h 84 % 0.0 mm 0 W/m2
01:30 13.2 °C 10.7 °C 1015.1 hPa Calm   3.2 km/h 85 % 0.0 mm 0 W/m2
01:35 13.1 °C 10.8 °C 1015.1 hPa Calm   3.2 km/h 86 % 0.0 mm 0 W/m2
01:40 13.1 °C 10.8 °C 1015.1 hPa East 1.6 km/h 4.8 km/h 86 % 0.0 mm 0 W/m2
01:45 13.2 °C 10.7 °C 1015.1 hPa Calm   4.8 km/h 85 % 0.0 mm 0 W/m2
01:50 13.2 °C 10.7 °C 1014.8 hPa East 1.6 km/h 8.0 km/h 85 % 0.0 mm 0 W/m2
01:55 13.3 °C 10.8 °C 1014.8 hPa East 3.2 km/h 8.0 km/h 85 % 0.0 mm 0 W/m2
02:00 13.4 °C 10.7 °C 1014.8 hPa Calm   8.0 km/h 84 % 0.0 mm 0 W/m2
02:05 13.4 °C 10.8 °C 1014.8 hPa East 3.2 km/h 8.0 km/h 84 % 0.0 mm 0 W/m2
02:10 13.5 °C 10.8 °C 1014.8 hPa East 1.6 km/h 4.8 km/h 84 % 0.0 mm 0 W/m2
02:15 13.6 °C 10.8 °C 1014.4 hPa East 3.2 km/h 4.8 km/h 83 % 0.0 mm 0 W/m2
02:20 13.7 °C 10.9 °C 1014.4 hPa Calm   8.0 km/h 83 % 0.0 mm 0 W/m2
02:25 13.7 °C 10.7 °C 1014.4 hPa ESE 1.6 km/h 9.7 km/h 82 % 0.0 mm 0 W/m2
02:30 13.7 °C 10.8 °C 1014.4 hPa East 3.2 km/h 9.7 km/h 83 % 0.0 mm 0 W/m2
02:35 13.6 °C 10.7 °C 1014.4 hPa ESE 1.6 km/h 8.0 km/h 83 % 0.0 mm 0 W/m2
02:40 13.5 °C 10.7 °C 1014.4 hPa East 4.8 km/h 8.0 km/h 83 % 0.0 mm 0 W/m2
02:45 13.4 °C 10.6 °C 1014.4 hPa ESE 3.2 km/h 6.4 km/h 83 % 0.0 mm 0 W/m2
02:50 13.3 °C 10.6 °C 1014.4 hPa Calm   6.4 km/h 84 % 0.0 mm 0 W/m2
02:55 13.2 °C 10.5 °C 1014.1 hPa ESE 3.2 km/h 8.0 km/h 84 % 0.0 mm 0 W/m2
03:00 13.1 °C 10.4 °C 1014.1 hPa Calm   8.0 km/h 84 % 0.0 mm 0 W/m2
03:05 13.0 °C 10.4 °C 1014.1 hPa ESE 4.8 km/h 8.0 km/h 84 % 0.0 mm 0 W/m2
03:10 13.1 °C 10.4 °C 1013.8 hPa ESE 3.2 km/h 8.0 km/h 84 % 0.0 mm 0 W/m2
03:15 13.0 °C 10.4 °C 1013.8 hPa ESE 3.2 km/h 8.0 km/h 84 % 0.0 mm 0 W/m2
03:20 13.0 °C 10.4 °C 1013.8 hPa East 8.0 km/h 11.3 km/h 84 % 0.0 mm 0 W/m2
03:30 13.2 °C 10.3 °C 1013.8 hPa ESE 3.2 km/h 8.0 km/h 83 % 0.0 mm 0 W/m2
03:35 13.1 °C 10.2 °C 1013.8 hPa ESE 3.2 km/h 8.0 km/h 83 % 0.0 mm 0 W/m2
03:40 12.9 °C 10.3 °C 1013.8 hPa ESE 6.4 km/h 8.0 km/h 84 % 0.0 mm 0 W/m2
03:45 13.0 °C 10.4 °C 1013.4 hPa ESE 3.2 km/h 8.0 km/h 84 % 0.0 mm 0 W/m2
03:50 13.1 °C 10.2 °C 1013.4 hPa ESE 4.8 km/h 8.0 km/h 83 % 0.0 mm 0 W/m2
03:55 13.1 °C 10.3 °C 1013.4 hPa SE 3.2 km/h 9.7 km/h 83 % 0.0 mm 0 W/m2
04:05 13.2 °C 10.3 °C 1013.4 hPa ESE 3.2 km/h 8.0 km/h 83 % 0.0 mm 0 W/m2
04:10 13.2 °C 10.3 °C 1013.4 hPa Calm   8.0 km/h 83 % 0.0 mm 0 W/m2
04:15 13.2 °C 10.4 °C 1013.4 hPa ESE 3.2 km/h 8.0 km/h 83 % 0.0 mm 0 W/m2
04:20 13.1 °C 10.2 °C 1013.4 hPa ESE 3.2 km/h 8.0 km/h 83 % 0.0 mm 0 W/m2
04:25 13.1 °C 10.2 °C 1013.4 hPa ESE 1.6 km/h 8.0 km/h 83 % 0.0 mm 0 W/m2
04:30 13.0 °C 10.2 °C 1013.4 hPa ESE 1.6 km/h 8.0 km/h 83 % 0.0 mm 0 W/m2
04:35 12.8 °C 10.1 °C 1013.4 hPa ESE 3.2 km/h 4.8 km/h 84 % 0.0 mm 0 W/m2
04:40 12.7 °C 10.2 °C 1013.1 hPa ESE 1.6 km/h 4.8 km/h 85 % 0.0 mm 0 W/m2
04:45 12.7 °C 10.2 °C 1013.1 hPa ESE 3.2 km/h 4.8 km/h 85 % 0.0 mm 0 W/m2
04:50 12.7 °C 10.2 °C 1013.1 hPa Calm   4.8 km/h 85 % 0.0 mm 0 W/m2
04:55 12.6 °C 10.1 °C 1013.1 hPa SE 1.6 km/h 6.4 km/h 85 % 0.0 mm 0 W/m2
05:00 12.6 °C 10.1 °C 1013.1 hPa ESE 3.2 km/h 8.0 km/h 85 % 0.0 mm 0 W/m2
05:10 12.4 °C 10.0 °C 1013.1 hPa ESE 1.6 km/h 6.4 km/h 85 % 0.0 mm 0 W/m2
05:15 12.5 °C 10.0 °C 1013.1 hPa East 3.2 km/h 8.0 km/h 85 % 0.0 mm 0 W/m2
05:20 12.7 °C 10.2 °C 1013.1 hPa SE 4.8 km/h 8.0 km/h 85 % 0.0 mm 0 W/m2
05:25 12.6 °C 10.0 °C 1013.1 hPa SE 3.2 km/h 8.0 km/h 84 % 0.0 mm 0 W/m2
05:30 12.4 °C 9.8 °C 1013.1 hPa SE 8.0 km/h 8.0 km/h 84 % 0.0 mm 0 W/m2
05:35 12.4 °C 10.0 °C 1013.1 hPa Calm   8.0 km/h 85 % 0.0 mm 0 W/m2
05:40 12.3 °C 9.9 °C 1013.1 hPa ESE 1.6 km/h 8.0 km/h 85 % 0.0 mm 0 W/m2
05:45 12.3 °C 10.0 °C 1013.1 hPa ESE 1.6 km/h 4.8 km/h 86 % 0.0 mm 0 W/m2
05:50 12.2 °C 9.9 °C 1013.1 hPa Calm   4.8 km/h 86 % 0.0 mm 0 W/m2
05:55 11.9 °C 10.0 °C 1013.1 hPa Calm   3.2 km/h 88 % 0.0 mm 0 W/m2
06:00 11.8 °C 10.0 °C 1013.1 hPa ESE 1.6 km/h 3.2 km/h 89 % 0.0 mm 0 W/m2
06:05 11.9 °C 10.2 °C 1013.1 hPa Calm   6.4 km/h 89 % 0.0 mm 0 W/m2
06:10 12.2 °C 10.2 °C 1012.8 hPa ESE 1.6 km/h 6.4 km/h 88 % 0.0 mm 0 W/m2
06:15 12.3 °C 10.2 °C 1012.4 hPa ESE 3.2 km/h 11.3 km/h 87 % 0.0 mm 0 W/m2
06:20 12.6 °C 10.3 °C 1012.8 hPa ESE 9.7 km/h 11.3 km/h 86 % 0.0 mm 0 W/m2
06:25 12.7 °C 10.3 °C 1012.8 hPa East 1.6 km/h 11.3 km/h 85 % 0.0 mm 0 W/m2
06:30 12.9 °C 10.2 °C 1012.8 hPa SSE 6.4 km/h 8.0 km/h 84 % 0.0 mm 0 W/m2
06:35 13.0 °C 10.4 °C 1013.1 hPa ESE 8.0 km/h 11.3 km/h 84 % 0.0 mm 0 W/m2
06:40 13.0 °C 10.4 °C 1013.1 hPa SE 4.8 km/h 11.3 km/h 84 % 0.0 mm 0 W/m2
06:45 13.1 °C 10.5 °C 1013.1 hPa SE 4.8 km/h 8.0 km/h 84 % 0.0 mm 5 W/m2
06:50 13.2 °C 10.3 °C 1013.1 hPa ESE 4.8 km/h 11.3 km/h 83 % 0.0 mm 9 W/m2
07:00 13.3 °C 10.5 °C 1013.1 hPa SSE 8.0 km/h 14.5 km/h 83 % 0.0 mm 11 W/m2
07:05 13.3 °C 10.5 °C 1013.1 hPa ESE 3.2 km/h 14.5 km/h 83 % 0.0 mm 12 W/m2
07:10 13.4 °C 10.6 °C 1013.1 hPa ESE 8.0 km/h 9.7 km/h 83 % 0.0 mm 12 W/m2
07:15 13.5 °C 10.7 °C 1013.1 hPa ESE 6.4 km/h 8.0 km/h 83 % 0.0 mm 14 W/m2
07:20 13.6 °C 10.5 °C 1013.1 hPa SE 4.8 km/h 8.0 km/h 82 % 0.0 mm 14 W/m2
07:25 13.7 °C 10.6 °C 1013.1 hPa Calm   11.3 km/h 82 % 0.0 mm 16 W/m2
07:30 13.6 °C 10.8 °C 1013.4 hPa SE 1.6 km/h 11.3 km/h 83 % 0.0 mm 19 W/m2
07:35 13.6 °C 10.8 °C 1013.4 hPa SE 1.6 km/h 6.4 km/h 83 % 0.0 mm 21 W/m2
07:40 13.6 °C 10.9 °C 1013.4 hPa Calm   6.4 km/h 84 % 0.0 mm 25 W/m2
07:45 13.4 °C 10.9 °C 1013.8 hPa Calm   3.2 km/h 85 % 0.0 mm 28 W/m2
07:50 13.5 °C 11.0 °C 1013.8 hPa East 3.2 km/h 4.8 km/h 85 % 0.0 mm 37 W/m2
07:55 13.7 °C 11.0 °C 1013.8 hPa Calm   8.0 km/h 84 % 0.0 mm 46 W/m2
08:00 13.7 °C 11.2 °C 1013.8 hPa Calm   8.0 km/h 85 % 0.0 mm 53 W/m2
08:05 13.7 °C 11.4 °C 1013.8 hPa Calm   3.2 km/h 86 % 0.0 mm 62 W/m2
08:15 13.9 °C 11.2 °C 1013.8 hPa Calm   3.2 km/h 84 % 0.0 mm 90 W/m2
08:20 14.1 °C 11.6 °C 1013.8 hPa Calm   4.8 km/h 85 % 0.0 mm 105 W/m2
08:25 14.3 °C 11.8 °C 1013.8 hPa Calm   4.8 km/h 85 % 0.0 mm 123 W/m2
08:30 14.4 °C 11.5 °C 1013.8 hPa Calm   4.8 km/h 83 % 0.0 mm 142 W/m2
08:35 14.6 °C 11.7 °C 1013.8 hPa ENE 3.2 km/h 8.0 km/h 83 % 0.0 mm 163 W/m2
08:40 14.8 °C 11.9 °C 1013.8 hPa Calm   8.0 km/h 83 % 0.0 mm 186 W/m2
08:45 15.0 °C 12.0 °C 1013.8 hPa ENE 3.2 km/h 8.0 km/h 82 % 0.0 mm 220 W/m2
08:50 15.2 °C 12.0 °C 1014.1 hPa ENE 8.0 km/h 9.7 km/h 81 % 0.0 mm 278 W/m2
08:55 15.4 °C 12.0 °C 1014.1 hPa East 4.8 km/h 11.3 km/h 80 % 0.0 mm 334 W/m2
09:00 15.7 °C 12.0 °C 1014.1 hPa ENE 3.2 km/h 11.3 km/h 79 % 0.0 mm 316 W/m2
09:05 15.9 °C 12.2 °C 1014.1 hPa East 6.4 km/h 8.0 km/h 79 % 0.0 mm 283 W/m2
09:10 15.9 °C 12.2 °C 1013.8 hPa East 3.2 km/h 8.0 km/h 79 % 0.0 mm 179 W/m2
09:15 15.9 °C 12.5 °C 1014.1 hPa East 3.2 km/h 8.0 km/h 80 % 0.0 mm 197 W/m2
09:20 15.9 °C 12.2 °C 1013.8 hPa East 1.6 km/h 12.9 km/h 79 % 0.0 mm 246 W/m2
09:25 16.0 °C 12.2 °C 1014.1 hPa Calm   12.9 km/h 78 % 0.0 mm 281 W/m2
09:30 16.1 °C 12.3 °C 1014.1 hPa SE 4.8 km/h 8.0 km/h 78 % 0.0 mm 269 W/m2
09:35 16.3 °C 12.4 °C 1014.1 hPa ESE 1.6 km/h 8.0 km/h 78 % 0.0 mm 274 W/m2
09:40 16.4 °C 12.8 °C 1014.1 hPa Calm   4.8 km/h 79 % 0.0 mm 294 W/m2
09:45 16.6 °C 12.5 °C 1014.1 hPa Calm   8.0 km/h 77 % 0.0 mm 301 W/m2
09:50 16.8 °C 13.0 °C 1014.1 hPa East 4.8 km/h 8.0 km/h 78 % 0.0 mm 278 W/m2
09:55 16.8 °C 12.9 °C 1014.4 hPa Calm   8.0 km/h 78 % 0.0 mm 262 W/m2
10:00 16.8 °C 13.0 °C 1014.4 hPa East 4.8 km/h 8.0 km/h 78 % 0.0 mm 234 W/m2
10:05 16.8 °C 12.8 °C 1014.4 hPa East 1.6 km/h 4.8 km/h 77 % 0.0 mm 234 W/m2
10:10 16.9 °C 12.8 °C 1014.4 hPa Calm   4.8 km/h 77 % 0.0 mm 232 W/m2
10:20 17.1 °C 13.0 °C 1014.4 hPa Calm   4.8 km/h 77 % 0.0 mm 241 W/m2
10:25 17.2 °C 13.3 °C 1014.4 hPa Calm   3.2 km/h 78 % 0.0 mm 229 W/m2
10:30 17.3 °C 13.4 °C 1014.4 hPa East 4.8 km/h 4.8 km/h 78 % 0.0 mm 255 W/m2
10:35 17.8 °C 13.7 °C 1014.4 hPa East 4.8 km/h 4.8 km/h 77 % 0.0 mm 663 W/m2
10:40 18.3 °C 13.8 °C 1014.4 hPa East 3.2 km/h 4.8 km/h 75 % 0.0 mm 545 W/m2
10:45 18.4 °C 14.1 °C 1014.4 hPa Calm   4.8 km/h 76 % 0.0 mm 279 W/m2
10:50 18.9 °C 13.9 °C 1014.4 hPa East 4.8 km/h 4.8 km/h 73 % 0.0 mm 661 W/m2
10:55 19.6 °C 14.4 °C 1014.4 hPa East 3.2 km/h 8.0 km/h 72 % 0.0 mm 807 W/m2
11:00 19.7 °C 13.6 °C 1014.4 hPa SSE 3.2 km/h 8.0 km/h 68 % 0.0 mm 411 W/m2
11:05 19.7 °C 14.5 °C 1014.4 hPa SSE 1.6 km/h 6.4 km/h 72 % 0.0 mm 731 W/m2
11:10 20.4 °C 15.2 °C 1014.4 hPa SSE 1.6 km/h 6.4 km/h 72 % 0.0 mm 729 W/m2
11:15 20.6 °C 14.7 °C 1014.4 hPa ESE 1.6 km/h 8.0 km/h 69 % 0.0 mm 735 W/m2
11:20 20.9 °C 15.4 °C 1014.8 hPa Calm   8.0 km/h 71 % 0.0 mm 766 W/m2
11:25 20.8 °C 14.2 °C 1014.8 hPa Calm   4.8 km/h 66 % 0.0 mm 826 W/m2
11:30 21.4 °C 14.8 °C 1014.8 hPa SSW 3.2 km/h 3.2 km/h 66 % 0.0 mm 566 W/m2
11:35 21.8 °C 16.8 °C 1014.8 hPa WNW 3.2 km/h 6.4 km/h 73 % 0.0 mm 773 W/m2
11:40 21.9 °C 15.5 °C 1014.8 hPa NW 4.8 km/h 8.0 km/h 67 % 0.0 mm 786 W/m2
11:45 21.6 °C 15.2 °C 1014.8 hPa West 4.8 km/h 8.0 km/h 67 % 0.0 mm 788 W/m2
11:50 21.8 °C 15.0 °C 1014.8 hPa Calm   8.0 km/h 65 % 0.0 mm 798 W/m2
11:55 22.4 °C 16.5 °C 1014.8 hPa WNW 1.6 km/h 6.4 km/h 69 % 0.0 mm 802 W/m2
12:00 22.6 °C 14.1 °C 1014.8 hPa WSW 8.0 km/h 9.7 km/h 59 % 0.0 mm 810 W/m2
12:05 22.4 °C 13.8 °C 1014.8 hPa WSW 4.8 km/h 9.7 km/h 58 % 0.0 mm 816 W/m2
12:10 22.6 °C 13.9 °C 1014.8 hPa WSW 1.6 km/h 9.7 km/h 58 % 0.0 mm 823 W/m2
12:15 22.9 °C 13.4 °C 1014.8 hPa Calm   8.0 km/h 55 % 0.0 mm 830 W/m2
12:20 23.1 °C 13.8 °C 1014.8 hPa WSW 3.2 km/h 9.7 km/h 56 % 0.0 mm 835 W/m2
12:25 23.7 °C 15.4 °C 1014.8 hPa West 14.5 km/h 14.5 km/h 60 % 0.0 mm 844 W/m2
12:30 22.9 °C 14.5 °C 1015.1 hPa NW 1.6 km/h 14.5 km/h 59 % 0.0 mm 851 W/m2
12:35 22.8 °C 14.9 °C 1015.1 hPa SW 1.6 km/h 12.9 km/h 61 % 0.0 mm 856 W/m2
12:40 23.2 °C 15.7 °C 1015.1 hPa NW 4.8 km/h 12.9 km/h 63 % 0.0 mm 867 W/m2
12:45 22.7 °C 14.0 °C 1015.1 hPa West 4.8 km/h 12.9 km/h 58 % 0.0 mm 874 W/m2
12:50 22.3 °C 13.3 °C 1015.1 hPa West 4.8 km/h 12.9 km/h 57 % 0.0 mm 874 W/m2
12:55 22.9 °C 14.8 °C 1015.5 hPa SW 6.4 km/h 12.9 km/h 60 % 0.0 mm 877 W/m2
13:00 22.4 °C 14.0 °C 1015.5 hPa WSW 6.4 km/h 14.5 km/h 59 % 0.0 mm 889 W/m2
13:05 22.3 °C 15.1 °C 1015.5 hPa WNW 9.7 km/h 14.5 km/h 64 % 0.0 mm 888 W/m2
13:10 21.7 °C 13.6 °C 1015.5 hPa West 4.8 km/h 14.5 km/h 60 % 0.0 mm 847 W/m2
13:15 21.7 °C 14.3 °C 1015.5 hPa WNW 8.0 km/h 16.1 km/h 63 % 0.0 mm 837 W/m2
13:20 21.1 °C 14.0 °C 1015.5 hPa West 12.9 km/h 17.7 km/h 64 % 0.0 mm 895 W/m2
13:25 21.6 °C 15.6 °C 1015.5 hPa WSW 9.7 km/h 17.7 km/h 69 % 0.0 mm 942 W/m2
13:30 21.5 °C 13.9 °C 1015.5 hPa West 4.8 km/h 16.1 km/h 62 % 0.0 mm 816 W/m2
13:35 21.2 °C 13.9 °C 1015.5 hPa WNW 6.4 km/h 12.9 km/h 63 % 0.0 mm 819 W/m2
13:40 21.2 °C 14.1 °C 1015.5 hPa West 11.3 km/h 12.9 km/h 64 % 0.0 mm 916 W/m2
13:45 21.2 °C 13.8 °C 1015.5 hPa WSW 14.5 km/h 17.7 km/h 63 % 0.0 mm 923 W/m2
13:50 21.0 °C 13.9 °C 1015.5 hPa WSW 16.1 km/h 17.7 km/h 64 % 0.0 mm 893 W/m2
13:55 20.9 °C 13.9 °C 1015.5 hPa West 9.7 km/h 17.7 km/h 64 % 0.0 mm 918 W/m2
14:00 21.1 °C 14.2 °C 1015.5 hPa WSW 9.7 km/h 16.1 km/h 65 % 0.0 mm 904 W/m2
14:05 21.1 °C 14.0 °C 1015.5 hPa WNW 6.4 km/h 16.1 km/h 64 % 0.0 mm 893 W/m2
14:10 21.0 °C 13.7 °C 1015.5 hPa WNW 8.0 km/h 14.5 km/h 63 % 0.0 mm 884 W/m2
14:15 21.2 °C 13.6 °C 1015.5 hPa WSW 14.5 km/h 14.5 km/h 62 % 0.0 mm 902 W/m2
14:20 21.0 °C 14.4 °C 1015.5 hPa SW 6.4 km/h 14.5 km/h 66 % 0.0 mm 886 W/m2
14:25 20.7 °C 13.4 °C 1015.5 hPa WSW 6.4 km/h 17.7 km/h 63 % 0.0 mm 886 W/m2
14:30 21.2 °C 14.3 °C 1015.8 hPa NW 4.8 km/h 17.7 km/h 65 % 0.0 mm 898 W/m2
14:35 21.2 °C 14.4 °C 1015.8 hPa WNW 4.8 km/h 17.7 km/h 65 % 0.0 mm 893 W/m2
14:40 20.9 °C 13.9 °C 1015.8 hPa WSW 8.0 km/h 17.7 km/h 64 % 0.0 mm 882 W/m2
14:45 21.2 °C 14.8 °C 1015.8 hPa WSW 11.3 km/h 19.3 km/h 67 % 0.0 mm 888 W/m2
14:50 20.9 °C 14.8 °C 1015.8 hPa WSW 6.4 km/h 22.5 km/h 68 % 0.0 mm 881 W/m2
14:55 21.2 °C 15.9 °C 1015.8 hPa WSW 11.3 km/h 22.5 km/h 72 % 0.0 mm 888 W/m2
15:00 20.8 °C 14.9 °C 1015.8 hPa SW 11.3 km/h 20.9 km/h 69 % 0.0 mm 877 W/m2
15:05 20.4 °C 14.8 °C 1016.1 hPa WSW 14.5 km/h 25.7 km/h 70 % 0.0 mm 858 W/m2
15:10 20.3 °C 14.5 °C 1016.1 hPa WSW 8.0 km/h 25.7 km/h 69 % 0.0 mm 858 W/m2
15:15 20.4 °C 14.8 °C 1015.8 hPa West 9.7 km/h 17.7 km/h 70 % 0.0 mm 849 W/m2
15:20 20.4 °C 14.8 °C 1016.1 hPa West 6.4 km/h 17.7 km/h 70 % 0.0 mm 826 W/m2
15:25 20.1 °C 14.7 °C 1016.1 hPa SW 14.5 km/h 20.9 km/h 71 % 0.0 mm 824 W/m2
15:30 19.7 °C 14.7 °C 1016.1 hPa WSW 6.4 km/h 20.9 km/h 73 % 0.0 mm 802 W/m2
15:35 19.8 °C 15.1 °C 1016.1 hPa WSW 14.5 km/h 20.9 km/h 74 % 0.0 mm 779 W/m2
15:40 19.7 °C 15.2 °C 1016.1 hPa West 19.3 km/h 25.7 km/h 75 % 0.0 mm 789 W/m2
15:45 19.8 °C 15.4 °C 1016.1 hPa West 19.3 km/h 25.7 km/h 76 % 0.0 mm 731 W/m2
15:50 19.9 °C 15.5 °C 1016.1 hPa WSW 12.9 km/h 22.5 km/h 76 % 0.0 mm 770 W/m2
15:55 20.2 °C 16.0 °C 1016.1 hPa NW 6.4 km/h 22.5 km/h 77 % 0.0 mm 747 W/m2
16:00 20.0 °C 15.8 °C 1016.5 hPa WNW 9.7 km/h 20.9 km/h 77 % 0.0 mm 677 W/m2
16:05 19.6 °C 15.5 °C 1016.5 hPa WSW 14.5 km/h 20.9 km/h 77 % 0.0 mm 724 W/m2
16:10 20.1 °C 16.5 °C 1016.5 hPa WSW 11.3 km/h 17.7 km/h 80 % 0.0 mm 698 W/m2
16:15 20.2 °C 15.9 °C 1016.1 hPa West 4.8 km/h 17.7 km/h 76 % 0.0 mm 740 W/m2
16:20 20.7 °C 16.7 °C 1016.1 hPa SW 6.4 km/h 17.7 km/h 78 % 0.0 mm 731 W/m2
16:25 20.9 °C 16.3 °C 1016.1 hPa WSW 11.3 km/h 22.5 km/h 75 % 0.0 mm 719 W/m2
16:30 20.2 °C 15.8 °C 1016.1 hPa WSW 11.3 km/h 22.5 km/h 76 % 0.0 mm 721 W/m2
16:35 20.1 °C 16.0 °C 1016.1 hPa WSW 16.1 km/h 19.3 km/h 77 % 0.0 mm 661 W/m2
16:40 20.1 °C 16.1 °C 1016.1 hPa West 11.3 km/h 20.9 km/h 78 % 0.0 mm 707 W/m2
16:45 19.7 °C 15.7 °C 1016.5 hPa West 8.0 km/h 25.7 km/h 78 % 0.0 mm 645 W/m2
16:50 19.8 °C 16.1 °C 1016.5 hPa WSW 6.4 km/h 25.7 km/h 79 % 0.0 mm 622 W/m2
16:55 19.6 °C 16.1 °C 1016.5 hPa WNW 8.0 km/h 24.1 km/h 80 % 0.0 mm 606 W/m2
17:00 19.4 °C 15.7 °C 1016.5 hPa WNW 3.2 km/h 24.1 km/h 79 % 0.0 mm 571 W/m2
17:05 19.0 °C 15.7 °C 1016.5 hPa WNW 9.7 km/h 24.1 km/h 81 % 0.0 mm 578 W/m2
17:10 19.4 °C 16.4 °C 1016.1 hPa West 11.3 km/h 24.1 km/h 83 % 0.0 mm 605 W/m2
17:15 19.5 °C 15.8 °C 1016.1 hPa WNW 14.5 km/h 19.3 km/h 79 % 0.0 mm 568 W/m2
17:20 19.6 °C 16.0 °C 1016.1 hPa WNW 8.0 km/h 19.3 km/h 80 % 0.0 mm 580 W/m2
17:25 19.4 °C 16.1 °C 1016.1 hPa NW 8.0 km/h 20.9 km/h 81 % 0.0 mm 568 W/m2
17:30 19.5 °C 16.2 °C 1016.1 hPa West 1.6 km/h 20.9 km/h 81 % 0.0 mm 571 W/m2
17:35 20.4 °C 16.4 °C 1016.1 hPa WSW 3.2 km/h 19.3 km/h 78 % 0.0 mm 547 W/m2
17:40 20.6 °C 17.0 °C 1016.1 hPa West 8.0 km/h 12.9 km/h 80 % 0.0 mm 584 W/m2
17:45 20.8 °C 16.4 °C 1016.1 hPa SW 4.8 km/h 16.1 km/h 76 % 0.0 mm 533 W/m2
17:50 20.6 °C 16.2 °C 1016.1 hPa West 4.8 km/h 16.1 km/h 76 % 0.0 mm 592 W/m2
17:55 20.8 °C 16.4 °C 1016.1 hPa WNW 6.4 km/h 14.5 km/h 76 % 0.0 mm 557 W/m2
18:00 20.3 °C 16.0 °C 1016.1 hPa West 11.3 km/h 19.3 km/h 76 % 0.0 mm 494 W/m2
18:05 19.9 °C 16.2 °C 1016.1 hPa West 9.7 km/h 19.3 km/h 79 % 0.0 mm 503 W/m2
18:10 19.8 °C 16.3 °C 1016.1 hPa West 4.8 km/h 19.3 km/h 80 % 0.0 mm 464 W/m2
18:15 20.4 °C 17.1 °C 1016.1 hPa WNW 8.0 km/h 19.3 km/h 81 % 0.0 mm 448 W/m2
18:20 20.4 °C 16.6 °C 1016.1 hPa West 3.2 km/h 12.9 km/h 79 % 0.0 mm 485 W/m2
18:25 20.7 °C 16.9 °C 1016.1 hPa West 6.4 km/h 12.9 km/h 79 % 0.0 mm 469 W/m2
18:30 21.0 °C 17.0 °C 1016.1 hPa WSW 9.7 km/h 12.9 km/h 78 % 0.0 mm 461 W/m2
18:35 20.6 °C 16.6 °C 1016.1 hPa West 8.0 km/h 14.5 km/h 78 % 0.0 mm 443 W/m2
18:45 19.4 °C 16.0 °C 1016.5 hPa West 9.7 km/h 16.1 km/h 81 % 0.0 mm 396 W/m2
18:50 19.1 °C 16.0 °C 1016.1 hPa WNW 3.2 km/h 19.3 km/h 82 % 0.0 mm 343 W/m2
18:55 19.1 °C 15.7 °C 1016.1 hPa West 11.3 km/h 19.3 km/h 81 % 0.0 mm 357 W/m2
19:00 18.9 °C 15.6 °C 1016.1 hPa West 11.3 km/h 17.7 km/h 81 % 0.0 mm 355 W/m2
19:05 18.8 °C 15.7 °C 1016.1 hPa West 16.1 km/h 20.9 km/h 82 % 0.0 mm 323 W/m2
19:10 18.7 °C 15.8 °C 1016.1 hPa West 19.3 km/h 20.9 km/h 83 % 0.0 mm 323 W/m2
19:15 18.4 °C 15.8 °C 1016.1 hPa West 9.7 km/h 22.5 km/h 85 % 0.0 mm 341 W/m2
19:20 18.2 °C 15.6 °C 1016.5 hPa West 8.0 km/h 22.5 km/h 85 % 0.0 mm 297 W/m2
19:25 17.9 °C 15.5 °C 1016.5 hPa West 6.4 km/h 27.4 km/h 86 % 0.0 mm 285 W/m2
19:30 17.8 °C 15.4 °C 1016.5 hPa West 12.9 km/h 27.4 km/h 86 % 0.0 mm 301 W/m2
19:35 17.6 °C 15.2 °C 1016.5 hPa WSW 11.3 km/h 22.5 km/h 86 % 0.0 mm 257 W/m2
19:40 17.6 °C 15.2 °C 1016.5 hPa West 8.0 km/h 27.4 km/h 86 % 0.0 mm 223 W/m2
19:45 17.6 °C 15.4 °C 1016.5 hPa WNW 12.9 km/h 27.4 km/h 87 % 0.0 mm 220 W/m2
19:50 17.7 °C 15.3 °C 1016.5 hPa SW 9.7 km/h 17.7 km/h 86 % 0.0 mm 200 W/m2
19:55 17.8 °C 15.4 °C 1016.5 hPa West 6.4 km/h 16.1 km/h 86 % 0.0 mm 179 W/m2
20:00 17.8 °C 15.5 °C 1016.5 hPa West 8.0 km/h 16.1 km/h 86 % 0.0 mm 144 W/m2
20:10 17.9 °C 15.5 °C 1016.5 hPa West 11.3 km/h 16.1 km/h 86 % 0.0 mm 146 W/m2
20:15 17.8 °C 15.4 °C 1016.5 hPa West 4.8 km/h 12.9 km/h 86 % 0.0 mm 139 W/m2
20:20 17.7 °C 15.3 °C 1016.8 hPa WNW 3.2 km/h 16.1 km/h 86 % 0.0 mm 142 W/m2
20:25 17.7 °C 15.3 °C 1016.8 hPa West 6.4 km/h 16.1 km/h 86 % 0.0 mm 102 W/m2
20:30 17.7 °C 15.3 °C 1016.8 hPa NNW 9.7 km/h 14.5 km/h 86 % 0.0 mm 65 W/m2
20:35 17.6 °C 15.4 °C 1016.8 hPa West 16.1 km/h 17.7 km/h 87 % 0.0 mm 60 W/m2
20:40 17.4 °C 15.3 °C 1016.8 hPa WNW 3.2 km/h 17.7 km/h 87 % 0.0 mm 49 W/m2
20:45 17.3 °C 15.1 °C 1016.8 hPa WNW 4.8 km/h 16.1 km/h 87 % 0.0 mm 44 W/m2
20:50 17.2 °C 15.2 °C 1016.8 hPa West 8.0 km/h 16.1 km/h 88 % 0.0 mm 39 W/m2
20:55 17.1 °C 15.1 °C 1016.8 hPa West 1.6 km/h 12.9 km/h 88 % 0.0 mm 35 W/m2
21:00 16.9 °C 14.9 °C 1016.8 hPa WNW 9.7 km/h 14.5 km/h 88 % 0.0 mm 30 W/m2
21:05 16.8 °C 14.8 °C 1017.2 hPa West 4.8 km/h 14.5 km/h 88 % 0.0 mm 26 W/m2
21:10 16.7 °C 14.7 °C 1016.8 hPa NW 11.3 km/h 16.1 km/h 88 % 0.0 mm 23 W/m2
21:15 16.7 °C 14.5 °C 1017.2 hPa West 8.0 km/h 17.7 km/h 87 % 0.0 mm 19 W/m2
21:20 16.6 °C 14.4 °C 1017.2 hPa NW 9.7 km/h 17.7 km/h 87 % 0.0 mm 16 W/m2
21:25 16.5 °C 14.1 °C 1017.2 hPa WNW 9.7 km/h 16.1 km/h 86 % 0.0 mm 14 W/m2
21:30 16.4 °C 14.0 °C 1017.2 hPa WNW 4.8 km/h 16.1 km/h 86 % 0.0 mm 12 W/m2
21:35 16.2 °C 14.1 °C 1017.2 hPa WNW 6.4 km/h 17.7 km/h 87 % 0.0 mm 11 W/m2
21:40 16.1 °C 13.9 °C 1017.5 hPa WNW 6.4 km/h 17.7 km/h 87 % 0.0 mm 7 W/m2
21:45 16.0 °C 14.0 °C 1017.5 hPa WNW 4.8 km/h 12.9 km/h 88 % 0.0 mm 5 W/m2
21:50 15.8 °C 13.8 °C 1017.5 hPa WNW 1.6 km/h 12.9 km/h 88 % 0.0 mm 0 W/m2
21:55 15.7 °C 13.9 °C 1017.5 hPa West 8.0 km/h 11.3 km/h 89 % 0.0 mm 0 W/m2
22:00 15.7 °C 13.9 °C 1017.8 hPa WNW 6.4 km/h 17.7 km/h 89 % 0.0 mm 0 W/m2
22:05 15.6 °C 13.9 °C 1017.8 hPa WNW 4.8 km/h 17.7 km/h 90 % 0.0 mm 0 W/m2
22:10 15.4 °C 13.8 °C 1017.8 hPa WNW 6.4 km/h 16.1 km/h 90 % 0.0 mm 0 W/m2
22:15 15.3 °C 13.7 °C 1017.8 hPa West 8.0 km/h 16.1 km/h 90 % 0.0 mm 0 W/m2
22:20 15.3 °C 13.8 °C 1017.8 hPa WSW 4.8 km/h 9.7 km/h 91 % 0.0 mm 0 W/m2
22:25 15.3 °C 13.8 °C 1017.8 hPa Calm   9.7 km/h 91 % 0.0 mm 0 W/m2
22:35 15.1 °C 13.6 °C 1017.8 hPa WSW 4.8 km/h 12.9 km/h 91 % 0.0 mm 0 W/m2
22:40 15.1 °C 13.8 °C 1017.8 hPa WNW 1.6 km/h 12.9 km/h 92 % 0.0 mm 0 W/m2
22:45 14.9 °C 13.7 °C 1017.8 hPa Calm   9.7 km/h 92 % 0.0 mm 0 W/m2
22:50 14.7 °C 13.4 °C 1018.2 hPa WNW 3.2 km/h 8.0 km/h 92 % 0.0 mm 0 W/m2
22:55 14.7 °C 13.4 °C 1018.2 hPa Calm   8.0 km/h 92 % 0.0 mm 0 W/m2
23:00 14.4 °C 13.3 °C 1018.2 hPa Calm   6.4 km/h 93 % 0.0 mm 0 W/m2
23:05 14.4 °C 13.3 °C 1018.5 hPa Calm   6.4 km/h 93 % 0.0 mm 0 W/m2
23:10 14.4 °C 13.5 °C 1018.5 hPa WNW 1.6 km/h 6.4 km/h 94 % 0.0 mm 0 W/m2
23:15 14.3 °C 13.2 °C 1018.5 hPa WNW 4.8 km/h 6.4 km/h 93 % 0.0 mm 0 W/m2
23:20 14.1 °C 12.9 °C 1018.5 hPa Calm   6.4 km/h 93 % 0.0 mm 0 W/m2
23:25 13.9 °C 13.0 °C 1018.5 hPa Calm   4.8 km/h 94 % 0.0 mm 0 W/m2
23:30 13.8 °C 12.8 °C 1018.5 hPa Calm   3.2 km/h 94 % 0.0 mm 0 W/m2
23:35 13.8 °C 12.8 °C 1018.8 hPa WNW 3.2 km/h 3.2 km/h 94 % 0.0 mm 0 W/m2
23:40 13.6 °C 12.8 °C 1018.8 hPa Calm   6.4 km/h 95 % 0.0 mm 0 W/m2
23:45 13.6 °C 12.8 °C 1018.8 hPa Calm   6.4 km/h 95 % 0.0 mm 0 W/m2
23:50 13.6 °C 12.8 °C 1018.8 hPa Calm   4.8 km/h 95 % 0.0 mm 0 W/m2
23:55 13.7 °C 13.0 °C 1018.8 hPa North 1.6 km/h 6.4 km/h 96 % 0.0 mm 0 W/m2
Avec l'autorisation de Weather Underground - 1.75 mb